Theta_e
277 277 277 277 277 278 277 277 278 278 278 278 278 278 279 281 283 285 287 290 293 294 294 295 295 295 296 296 297 297 297 298 298 299 299 300 302 309 310 310 310 309
276 277 277 276 276 277 277 277 277 277 276 277 277 277 278 280 282 284 286 288 290 293 294 294 294 294 294 294 294 295 295 296 297 298 298 299 300 305 310 310 309 308
276 275 275 274 275 275 275 275 276 276 276 276 276 277 278 279 280 282 284 286 288 291 293 293 293 292 292 292 293 294 294 295 296 298 298 298 299 302 310 310 309 307
274 274 274 274 274 274 274 275 275 275 275 274 275 276 277 278 279 281 284 286 287 289 291 292 291 291 291 292 292 293 293 294 296 297 298 298 299 300 308 310 308 307
273 274 274 273 273 274 273 273 273 273 274 274 275 275 276 277 278 280 282 283 286 289 290 291 291 291 291 291 291 291 292 293 295 296 297 297 299 300 304 309 308 307
273 273 273 272 272 272 272 272 273 273 273 273 274 275 276 277 277 278 279 280 284 285 286 289 291 290 290 290 290 291 291 292 293 295 296 296 298 300 302 308 308 307
272 272 272 272 272 272 272 272 272 273 273 273 274 274 275 275 276 277 278 281 281 281 283 286 289 290 290 290 290 289 290 291 292 293 294 295 297 298 301 307 308 307
272 272 272 271 271 271 271 271 272 272 272 273 272 273 274 275 276 277 278 279 279 280 282 284 287 290 290 289 289 289 289 291 291 292 293 295 296 297 299 306 308 307
272 271 271 271 270 270 270 270 271 271 272 271 272 272 274 274 275 276 278 278 278 279 281 283 286 289 290 289 288 288 289 289 290 291 292 293 295 296 298 305 307 306
271 271 270 270 270 270 270 270 270 271 271 271 272 272 273 274 274 275 276 277 278 279 281 283 284 287 289 288 288 288 288 289 289 290 291 292 294 295 298 303 306 305
271 271 270 269 269 269 269 270 270 270 270 271 271 271 272 272 273 274 275 276 277 278 279 280 282 284 287 288 288 288 288 288 289 289 290 291 293 295 296 301 306 305
270 270 270 269 269 269 269 269 269 270 270 270 270 270 271 272 272 273 274 275 276 277 278 278 280 281 284 288 288 288 288 288 288 289 290 291 293 294 297 301 305 305
269 269 269 269 269 269 268 269 269 269 269 269 270 271 271 271 273 273 274 275 275 276 276 277 278 280 282 286 288 288 288 287 288 288 290 291 293 295 298 301 305 305
269 269 269 269 269 269 268 268 268 269 269 269 270 270 270 271 271 271 273 273 274 275 276 277 278 279 281 285 288 288 287 287 288 288 289 289 290 292 295 300 305 305
269 269 269 269 269 268 268 268 268 268 269 269 269 269 270 270 271 271 272 273 274 275 275 276 277 278 280 283 287 287 288 287 287 287 287 287 288 290 292 297 304 305
269 268 268 268 268 268 267 267 267 268 268 268 268 269 269 270 270 270 270 271 272 274 275 276 276 278 280 282 286 287 287 287 287 287 287 287 287 288 290 294 302 305
267 267 268 267 267 267 267 267 267 267 267 267 268 268 268 269 270 270 271 273 273 274 274 275 276 277 280 282 284 287 288 288 287 287 287 287 287 287 288 291 298 304
267 267 267 266 266 266 266 266 266 266 266 266 267 267 268 269 269 270 271 271 271 272 273 275 276 279 281 282 283 285 287 288 288 287 286 287 287 287 289 291 296 303
266 266 266 265 265 265 265 266 265 265 265 266 266 267 267 267 268 268 268 269 270 270 272 274 275 279 281 282 283 284 286 287 288 288 286 286 286 287 288 289 293 300
265 265 264 264 264 264 265 265 265 265 265 266 266 267 266 267 267 268 268 269 270 270 272 274 275 278 281 281 282 284 285 286 287 287 286 286 286 287 288 289 291 298
263 263 262 263 263 264 264 264 264 265 265 265 266 266 266 266 267 268 268 269 270 272 273 274 276 280 281 282 283 284 285 287 287 287 287 286 287 287 288 289 291 297
262 262 262 262 262 263 263 263 264 264 264 265 266 266 267 268 268 268 268 269 270 271 272 275 277 280 281 281 283 284 286 285 286 286 286 286 286 287 288 289 292 296
262 261 261 261 261 262 262 263 263 264 265 266 265 266 266 267 267 268 269 269 269 271 272 275 277 279 281 282 283 284 285 285 286 286 286 286 286 287 288 290 292 295
261 260 260 260 261 261 261 262 264 265 265 266 265 265 266 267 267 268 268 269 270 270 271 272 275 278 280 282 283 284 285 284 285 285 285 285 286 287 288 290 292 293
260 260 260 260 260 261 262 263 264 265 266 266 266 266 266 267 268 268 268 269 270 271 274 274 275 278 281 282 283 284 285 285 285 285 285 285 286 286 288 290 293 294
260 260 260 261 261 262 264 265 266 266 266 266 267 267 267 267 268 268 268 269 270 272 274 277 278 279 281 283 284 285 286 285 286 285 284 285 285 286 287 289 293 296
Wind_Speed
15 14 16 16 16 15 15 15 12 13 12 12 14 15 15 16 19 18 18 17 17 15 10 8 7 6 6 7 8 7 8 9 9 7 10 13 18 20 19 20 18 18
17 16 15 15 14 14 12 11 15 13 13 14 14 14 14 16 17 18 17 16 18 17 13 9 8 7 6 6 7 7 7 8 10 7 9 14 15 19 19 23 19 17
16 16 16 15 15 16 15 15 13 13 12 13 14 14 12 13 16 17 17 15 16 17 15 11 8 6 6 6 7 7 7 7 9 8 9 11 12 17 20 19 18 18
18 16 15 14 15 14 15 14 12 13 13 13 14 13 13 12 15 17 16 15 14 15 15 14 9 7 6 6 6 6 7 7 8 9 10 9 11 15 18 17 17 17
17 17 15 14 12 16 16 15 17 13 13 14 13 15 12 14 15 13 13 16 15 14 14 14 11 8 7 6 6 6 6 7 8 8 9 10 10 12 16 14 17 19
16 15 15 13 14 15 14 15 14 14 16 14 16 12 14 12 14 13 17 16 15 15 16 16 13 10 8 7 6 6 5 6 7 9 10 10 10 11 13 15 17 19
17 17 16 14 15 14 15 15 13 17 13 14 13 15 13 15 15 14 14 13 15 15 15 16 15 12 8 7 6 5 5 5 6 8 11 11 9 12 14 18 19 18
18 15 13 13 14 15 16 14 14 12 14 12 15 15 14 15 14 13 13 13 14 14 14 14 16 15 11 7 6 5 5 5 5 8 11 11 9 12 14 17 19 21
16 15 16 17 17 15 16 16 14 14 12 16 16 14 13 12 13 13 13 13 14 13 14 13 15 15 12 8 6 6 6 5 5 7 10 12 11 12 14 17 18 20
17 17 18 16 17 15 15 16 15 14 14 14 14 12 14 13 13 15 15 14 14 12 13 12 14 15 13 10 8 7 6 6 6 7 9 11 12 13 14 17 19 17
21 19 18 18 17 15 15 15 16 14 13 15 14 14 14 13 14 13 14 14 14 14 14 14 14 15 15 11 8 6 6 6 7 7 8 10 12 13 14 17 19 18
16 18 19 19 19 17 17 16 15 14 15 12 12 15 13 15 14 12 11 13 13 12 13 14 14 15 16 14 11 8 6 6 7 7 8 9 11 13 14 16 18 20
17 17 18 17 18 18 17 17 16 16 16 15 13 14 16 14 12 13 11 13 13 13 12 13 15 15 14 16 13 9 7 7 7 7 8 8 9 12 14 16 18 18
20 21 21 20 18 18 19 18 19 19 19 18 17 18 17 17 17 17 15 13 15 14 14 12 14 15 15 15 12 8 7 7 7 8 8 8 10 11 13 15 17 18
17 16 16 19 22 18 17 20 19 19 19 18 18 18 16 16 16 17 18 18 15 13 13 12 13 14 12 13 11 9 7 7 8 8 8 9 10 11 12 15 15 17
20 21 21 21 17 18 23 22 20 18 18 18 19 18 18 17 18 18 19 20 19 16 13 11 12 11 16 24 23 13 9 8 8 7 6 7 9 11 12 13 14 15
19 19 20 17 20 21 17 18 18 19 18 19 19 18 19 18 16 18 17 16 17 16 16 13 12 12 22 23 25 27 16 9 8 7 6 7 8 9 11 13 13 15
22 22 20 23 21 23 20 17 19 17 18 18 18 18 17 16 18 18 17 17 17 19 18 15 14 17 24 24 24 26 22 12 8 8 7 7 8 9 11 12 14 14
19 16 20 19 21 18 19 21 18 17 17 16 17 17 17 18 18 19 18 17 18 19 19 18 15 19 23 24 24 24 25 20 10 9 8 9 8 9 11 12 14 13
20 20 21 24 21 18 17 17 16 19 19 16 16 16 16 17 17 17 17 17 17 18 18 17 17 19 25 25 24 25 25 21 11 10 9 9 10 10 10 11 14 14
19 19 20 19 22 22 21 20 19 17 17 16 15 16 17 16 15 15 14 14 15 16 17 17 15 22 23 23 23 25 25 21 12 11 9 9 10 10 11 12 13 14
18 19 20 20 21 20 20 21 20 19 19 16 15 15 14 14 14 14 15 15 16 17 18 18 14 23 24 25 26 24 25 14 11 11 10 10 10 11 11 11 12 13
20 21 23 22 22 22 21 20 19 18 16 13 15 15 14 14 14 14 13 13 15 17 18 17 14 18 22 24 25 25 20 12 10 9 10 11 11 11 11 11 12 13
19 19 22 22 21 22 21 19 18 16 16 14 13 14 15 14 13 14 14 14 15 16 17 17 15 18 25 25 25 25 20 13 11 10 11 11 10 10 10 11 13 20
19 20 20 21 20 20 19 19 17 16 16 14 13 12 14 13 12 12 13 12 13 16 23 22 18 18 24 25 26 24 19 12 12 10 11 11 10 10 10 10 12 14
17 19 19 18 20 19 17 16 17 17 14 12 12 10 11 11 11 12 14 14 14 15 15 16 16 13 15 23 24 25 25 15 10 11 12 11 9 9 9 9 11 11
Wind_Direction
317 316 314 312 309 307 306 303 299 304 307 306 303 302 301 301 300 301 303 306 292 266 244 221 224 234 246 261 268 267 268 269 268 268 269 271 274 249 201 198 193 188
320 319 314 310 306 304 302 308 310 303 299 300 300 300 298 297 297 299 301 304 301 285 261 233 217 220 236 249 265 269 271 271 274 264 269 275 272 269 224 193 195 190
321 320 316 311 308 304 304 299 291 292 300 301 299 297 294 296 297 296 296 297 298 294 276 256 227 217 227 238 252 269 273 278 278 275 268 273 271 274 240 202 187 187
320 317 313 309 307 304 303 299 296 299 298 295 295 293 291 290 290 292 294 294 294 294 287 268 247 225 221 229 244 260 270 273 273 274 268 268 270 274 256 206 192 182
315 315 312 307 302 301 301 296 295 292 292 293 294 292 287 290 292 295 299 301 302 302 299 281 259 240 221 224 228 251 263 273 278 273 269 267 269 268 272 229 193 186
309 308 305 303 302 300 296 292 294 296 296 295 294 292 288 288 291 294 298 297 298 305 306 298 275 253 236 225 224 232 250 270 279 282 278 273 274 270 269 238 201 188
309 309 305 303 301 299 296 296 292 294 291 294 296 293 296 294 292 291 291 294 301 301 301 298 290 268 249 235 230 237 247 260 280 283 279 276 272 276 270 244 203 189
308 305 301 303 302 300 298 294 293 290 294 293 294 293 292 288 285 289 292 296 297 297 296 296 293 280 260 245 241 247 259 265 282 286 285 281 277 274 271 251 205 185
308 306 309 307 304 304 299 297 295 293 293 293 292 290 285 285 289 289 292 294 293 294 296 294 293 287 266 251 245 245 257 270 272 280 284 285 280 274 270 251 216 189
309 310 307 306 306 301 295 296 294 292 292 289 289 287 290 293 295 295 294 293 292 289 292 296 298 296 279 257 247 242 248 260 271 276 280 283 280 281 275 253 214 193
313 312 307 306 308 306 295 295 293 292 291 288 289 288 290 291 289 285 283 284 286 290 294 298 298 297 292 275 257 245 244 254 262 272 279 281 280 281 279 263 220 189
312 311 310 305 305 304 305 299 291 287 288 283 283 284 281 283 281 281 279 282 285 288 291 293 293 290 288 281 266 251 247 252 259 264 274 279 280 280 277 267 230 188
309 310 307 303 308 308 306 303 299 298 296 294 291 287 288 283 282 286 286 286 286 286 283 284 285 284 284 280 269 253 250 256 264 270 272 279 277 279 277 270 233 198
315 312 309 311 309 307 305 306 303 299 296 294 294 291 291 291 292 292 289 283 279 278 279 280 281 283 280 278 267 254 252 258 263 273 281 284 290 288 286 276 237 197
305 307 303 305 310 303 301 302 301 300 296 295 293 291 287 285 286 289 290 287 279 274 276 275 277 277 279 277 272 258 250 256 267 271 280 289 292 292 288 283 247 202
313 314 313 309 304 310 305 304 302 301 300 296 293 289 287 286 285 284 283 282 281 275 268 268 270 272 273 275 274 271 261 259 262 267 269 283 290 295 294 290 258 210
312 313 309 304 308 304 305 299 297 300 298 295 291 289 288 287 282 280 275 274 277 278 273 267 266 268 272 274 274 272 269 257 259 265 265 276 286 289 295 293 272 218
315 309 309 311 310 305 303 302 295 294 294 292 290 288 287 286 285 283 285 286 285 282 277 271 267 266 271 271 270 271 270 264 258 262 262 271 281 286 291 295 279 231
309 307 305 306 307 303 302 300 295 290 290 285 283 284 285 283 282 280 277 277 274 274 272 268 266 267 269 270 269 268 268 266 261 258 261 270 272 276 283 287 286 244
310 308 305 303 302 301 297 292 292 292 289 287 285 280 276 278 279 276 274 270 269 269 269 266 263 265 267 268 268 266 264 261 253 253 254 259 265 266 272 274 278 263
314 312 309 307 304 303 302 298 291 287 285 284 285 282 281 277 276 282 276 272 270 269 265 261 260 262 264 265 265 263 260 257 248 247 247 252 256 259 262 264 268 263
306 305 304 301 302 301 300 296 293 291 290 284 278 275 271 271 270 270 274 270 268 267 268 265 259 261 264 267 266 263 258 251 243 239 244 247 251 256 259 260 261 258
317 315 312 308 302 296 294 294 290 285 280 273 274 272 268 269 270 271 271 269 270 273 273 268 254 254 262 264 262 258 254 247 240 238 240 244 247 253 258 262 260 256
310 304 300 298 297 295 292 289 285 281 280 278 266 267 267 261 262 267 268 268 265 262 261 269 271 264 262 261 259 255 248 245 239 238 238 242 249 249 256 259 262 255
307 306 301 296 292 289 288 285 284 284 281 276 261 258 260 261 259 261 264 261 262 261 263 261 259 258 258 260 259 254 248 237 234 227 238 240 242 252 254 258 259 251
305 302 296 290 290 287 284 283 289 287 274 267 261 250 256 258 259 261 262 264 263 265 262 256 252 247 250 256 256 253 248 242 227 231 234 238 239 247 261 261 252 242